Temperature
19 19 19 19 19 18 18 18 18 18 18 18 18 18 18 18 18 18 18 18 18 18 18 18 18 18 18 18 18 18 18 18 18 18 18 18 18 18 17 17 17 17 17
19 19 19 19 19 18 18 18 18 18 18 18 18 18 18 18 18 18 18 18 18 18 18 18 18 18 18 18 18 18 18 18 18 18 18 17 17 17 17 17 17 17 17
19 19 19 19 19 18 18 18 18 18 18 18 18 18 18 18 18 18 18 18 18 18 18 17 17 18 18 18 18 18 18 17 17 17 17 17 17 17 17 17 17 17 17
19 19 19 19 19 18 18 18 18 18 18 18 18 18 18 18 18 18 18 18 18 18 18 18 18 18 18 18 18 17 17 17 17 17 17 17 17 17 17 17 17 17 17
19 19 19 19 19 18 18 18 18 18 18 18 18 18 18 18 18 18 18 18 18 18 18 18 18 18 18 18 18 17 17 17 17 17 17 17 17 17 17 17 17 17 17
19 19 19 19 19 19 18 18 18 18 18 18 18 18 18 18 18 18 18 18 18 18 18 18 18 18 18 18 17 17 17 17 17 17 17 17 17 17 17 17 17 17 17
20 19 20 19 19 19 18 18 18 18 18 18 18 18 18 18 18 18 18 18 18 18 18 18 18 18 18 18 17 17 17 17 17 17 17 17 17 17 17 17 17 17 17
20 19 20 19 19 19 19 18 18 18 18 18 18 18 18 18 18 18 18 18 18 18 18 18 18 18 18 18 18 18 17 17 17 17 17 17 17 17 17 17 17 17 17
20 20 19 19 19 19 19 19 18 18 18 18 18 18 18 18 18 18 18 18 18 18 18 18 18 18 18 18 18 18 18 17 17 17 17 17 17 17 17 17 17 17 17
21 20 19 19 19 19 19 19 19 19 18 18 18 18 18 18 18 18 18 18 18 18 18 18 18 18 18 18 18 18 18 18 17 17 18 18 17 17 17 17 17 17 17
21 20 20 19 19 19 19 19 19 18 18 18 18 18 18 18 18 18 18 18 18 18 18 18 18 18 18 18 18 18 18 18 18 18 18 18 18 17 17 17 17 17 17
21 20 20 20 19 19 19 19 18 18 18 18 18 18 18 18 18 18 18 18 18 18 18 18 18 18 18 18 18 18 18 18 18 18 18 18 18 17 17 17 17 17 17
21 20 20 19 19 19 19 19 18 18 18 18 18 18 18 18 18 18 18 18 18 18 18 18 18 18 18 18 18 18 18 18 18 18 18 18 18 18 17 17 17 17 17
20 20 20 19 19 19 19 19 19 18 18 18 18 18 18 18 18 18 18 18 18 18 18 18 18 18 18 18 18 18 18 18 18 18 18 18 18 18 17 17 17 17 17
20 20 19 19 19 19 19 19 19 19 18 18 18 18 18 18 18 18 18 18 18 18 18 18 18 18 18 18 18 18 18 18 18 18 18 18 18 18 17 17 17 17 17
20 20 19 19 19 19 19 19 19 19 18 18 18 18 18 18 18 18 18 18 18 18 18 18 18 18 18 18 18 18 18 18 18 18 18 18 18 18 17 17 17 17 17
20 20 19 19 19 19 18 18 18 18 18 18 18 18 18 18 18 18 18 18 18 18 18 18 18 18 18 18 18 18 18 18 18 17 17 17 17 17 17 17 17 17 17
20 20 19 19 19 19 18 18 18 18 18 18 18 18 18 18 18 18 18 18 18 18 18 18 18 18 18 18 18 18 18 18 17 17 17 17 17 17 17 17 17 17 17
20 20 19 19 19 19 18 18 18 18 18 18 18 18 18 18 18 18 18 18 18 18 18 18 18 18 18 18 18 18 18 18 18 17 17 17 17 17 17 17 17 17 17
20 20 20 19 19 19 18 18 18 18 18 18 18 18 18 18 18 18 18 18 18 18 18 18 18 18 18 18 18 18 18 18 18 18 17 17 17 17 17 17 17 17 17
20 20 19 19 19 19 19 18 18 18 18 18 18 18 18 18 18 18 18 18 18 18 18 18 18 18 18 18 18 18 18 18 18 18 18 17 17 17 17 17 17 17 17
20 20 20 19 19 19 19 19 19 18 18 18 18 18 18 18 18 18 18 18 18 18 18 18 18 18 18 18 18 18 18 18 18 18 17 17 17 17 17 17 16 16 16
21 20 20 20 20 19 19 19 19 19 18 18 18 18 18 18 18 18 18 18 18 18 18 18 18 18 18 18 18 18 18 18 18 18 17 17 17 17 17 17 16 16 16
21 21 21 20 20 19 19 19 19 19 19 19 18 18 18 18 18 18 18 18 18 17 17 17 17 18 18 18 18 18 18 18 17 17 17 17 17 17 17 16 16 16 16
22 21 21 20 20 20 20 19 19 19 19 19 18 18 18 18 18 18 18 18 18 18 18 17 17 17 17 17 17 18 18 18 18 17 17 17 17 16 16 16 16 16 16
22 22 21 21 21 20 20 20 19 19 19 19 19 18 18 18 18 18 18 18 18 17 17 17 17 17 17 17 17 17 17 17 17 17 17 16 16 16 16 16 16 15 15
Wind_Speed
14 14 14 14 14 14 13 13 14 14 14 14 14 15 15 16 17 17 17 17 16 17 17 18 17 17 17 17 17 17 17 18 18 17 18 17 17 16 16 15 15 15 16
16 15 15 14 14 14 13 13 13 14 14 14 14 15 15 16 16 17 17 17 17 17 17 17 16 16 16 17 17 17 16 16 16 16 16 16 15 15 14 14 14 14 16
15 15 14 14 14 13 13 13 13 13 14 14 14 15 15 16 16 16 17 17 17 16 16 16 15 15 16 16 16 16 15 15 15 15 14 13 13 14 15 15 16 15 15
15 15 14 13 13 13 13 13 14 14 14 14 14 14 15 16 16 16 16 16 16 16 15 15 15 15 15 14 14 14 13 13 13 12 9 11 13 14 14 14 15 14 14
15 16 14 13 13 13 13 13 14 14 14 14 14 14 15 15 15 15 15 16 15 15 15 15 15 14 13 13 12 12 11 11 9 7 9 11 13 13 13 13 13 13 13
15 16 14 13 12 12 12 13 13 14 14 14 14 14 15 14 14 15 15 15 15 15 14 14 14 13 12 11 10 9 8 7 5 7 12 13 13 13 13 13 12 12 12
14 16 14 13 13 12 12 12 13 13 13 14 14 13 13 13 14 14 14 14 14 14 14 13 13 12 11 9 7 6 5 3 2 7 10 13 14 14 13 12 11 11 11
14 15 15 13 13 12 12 12 12 12 13 13 13 13 13 13 13 13 13 14 13 13 13 12 11 10 9 7 5 3 2 2 5 8 11 13 15 14 13 12 11 10 10
12 14 13 13 12 12 12 11 11 11 11 11 11 12 12 12 12 12 12 13 12 12 12 11 10 10 8 5 3 2 2 2 4 8 11 12 13 13 13 12 11 10 10
10 11 11 12 13 12 12 11 11 10 10 9 9 10 11 11 11 12 12 11 11 10 10 10 9 9 7 5 3 3 3 2 5 8 9 11 13 13 12 11 11 10 9
8 7 8 10 9 10 12 12 10 9 8 8 8 9 9 9 10 10 11 10 10 9 9 8 8 8 7 6 5 5 4 2 5 9 10 13 13 13 12 11 11 10 9
7 7 7 8 6 7 8 9 8 8 8 6 6 7 7 6 7 10 11 10 9 9 8 8 8 8 7 6 7 7 5 5 7 9 11 13 13 12 12 11 11 10 9
6 6 7 7 5 5 4 5 4 5 6 5 4 4 4 6 7 8 8 9 8 8 7 8 8 7 5 3 3 5 4 4 7 9 11 14 13 12 12 11 10 10 9
6 6 7 7 5 4 4 3 3 3 3 4 4 3 3 1 2 4 4 5 6 5 5 6 5 4 4 4 2 1 2 3 7 9 11 14 12 12 12 11 10 10 9
6 6 7 6 5 3 2 1 2 2 2 5 5 3 3 1 1 2 1 2 3 4 4 2 2 2 2 2 2 1 2 2 7 9 10 13 13 12 11 11 10 9 9
6 6 6 6 6 3 2 0 1 2 3 3 4 3 2 2 2 1 1 0 0 2 2 3 2 2 1 2 1 1 1 2 5 8 11 11 12 12 11 10 10 9 9
7 6 5 5 6 4 3 1 1 1 3 3 3 4 2 2 2 1 1 1 1 2 2 2 2 2 2 2 1 1 1 2 3 5 9 10 10 11 11 10 10 10 9
6 6 4 4 6 4 3 1 0 1 2 2 3 4 3 3 2 0 1 1 1 1 2 1 1 1 1 1 1 1 1 2 3 4 6 9 10 10 12 12 11 10 10
7 5 4 4 4 4 4 3 1 1 2 1 2 3 4 3 2 1 1 1 1 1 1 1 2 1 1 1 1 1 2 2 3 4 4 6 8 9 10 12 12 11 10
7 6 5 4 4 3 3 2 2 2 2 2 2 2 3 3 3 1 1 2 1 1 1 1 0 1 1 2 2 1 1 2 2 3 3 3 6 8 10 10 11 10 10
8 7 5 4 4 3 2 2 2 2 2 2 2 3 3 2 2 1 0 2 1 1 1 1 1 1 2 2 1 1 1 2 2 2 2 2 3 5 7 8 9 8 7
8 7 6 4 4 3 3 2 2 2 2 3 2 3 3 2 2 2 1 1 1 1 1 1 2 1 2 2 2 1 0 0 0 1 2 2 2 3 4 5 6 6 5
9 8 6 5 5 4 4 3 2 2 1 1 2 2 2 2 2 1 2 1 1 1 1 2 1 2 2 3 3 2 1 1 0 1 1 1 2 2 2 4 5 6 5
10 9 7 6 5 4 3 2 3 3 2 2 2 2 3 2 1 1 1 1 1 1 1 1 1 2 2 3 2 2 2 2 2 1 0 1 1 2 1 1 3 5 5
11 10 9 7 5 4 3 2 2 2 2 2 3 3 2 2 2 1 2 1 1 1 1 1 1 1 1 2 2 2 2 2 2 2 1 1 1 1 1 2 3 5 6
11 11 10 9 6 5 4 3 3 2 1 2 2 2 2 2 2 2 2 1 0 0 0 1 1 1 1 2 2 2 1 2 2 2 3 3 1 1 2 3 3 4 6
Wind_Direction
90 87 78 73 72 72 71 69 68 68 71 76 81 85 87 90 92 93 92 90 93 97 101 106 107 105 104 105 105 105 103 103 105 107 108 109 108 110 110 113 111 106 108
97 93 83 76 74 74 73 72 71 72 74 77 81 86 88 92 94 96 96 94 95 98 101 103 107 108 107 107 106 108 108 111 113 115 114 111 110 110 109 108 107 113 113
103 100 89 80 78 75 75 74 74 75 79 80 82 86 89 92 95 97 97 98 99 100 101 104 109 110 110 109 110 112 114 117 122 123 121 115 112 108 106 109 112 116 115
99 96 89 86 82 79 77 78 77 77 82 85 87 89 91 93 95 98 100 100 101 103 104 105 107 111 112 113 114 117 123 128 132 135 130 122 116 114 112 113 115 118 117
96 97 94 89 85 82 81 81 81 82 82 86 90 91 91 94 96 98 100 101 102 105 106 107 108 111 113 115 120 125 132 136 141 137 118 112 113 120 119 118 120 122 122
110 103 100 95 90 87 85 84 84 85 86 87 91 91 92 94 98 99 101 102 104 106 107 107 110 112 114 118 124 130 139 144 151 130 121 118 120 127 125 124 124 124 125
109 108 108 103 97 93 90 88 88 89 90 89 92 95 95 97 97 99 103 105 106 106 105 105 109 112 115 118 122 129 137 150 147 119 114 118 125 129 129 128 126 127 127
114 113 115 114 107 100 96 94 94 94 94 95 97 99 100 101 102 104 106 107 108 109 109 110 113 117 120 124 128 131 154 198 123 118 117 119 131 133 131 131 131 132 130
110 119 130 128 120 111 105 103 101 101 102 103 105 107 110 110 109 108 108 110 112 116 118 119 119 122 126 135 150 182 233 253 136 126 121 125 135 136 136 135 135 137 135
111 117 131 130 134 133 123 119 118 115 117 118 120 123 125 124 120 121 117 117 119 121 125 127 129 133 141 157 185 224 264 282 144 123 121 131 140 142 142 141 139 139 141
97 105 113 120 130 133 130 133 139 136 137 141 147 153 153 148 135 133 121 126 130 133 137 141 149 154 160 180 204 222 249 248 123 114 116 132 143 147 147 146 145 146 149
106 111 102 97 103 111 113 132 145 143 148 169 153 162 166 139 132 123 133 140 145 150 156 165 171 176 189 189 198 210 222 189 127 116 124 138 146 150 152 151 152 156 157
117 109 109 102 97 94 103 128 127 123 140 148 136 133 136 143 143 137 152 156 166 171 177 170 184 198 197 188 183 199 194 140 119 119 135 143 148 152 156 157 157 161 164
113 108 100 103 91 71 69 96 126 129 136 125 127 137 120 121 131 139 153 166 174 173 173 169 179 178 173 170 182 188 110 118 115 121 142 150 153 157 159 162 165 168 172
112 110 101 102 97 91 67 341 106 99 106 114 117 105 116 124 116 114 114 152 178 167 161 157 144 139 128 132 153 141 98 111 125 135 146 157 161 165 169 172 175 179 180
122 117 115 121 121 123 124 333 52 108 118 107 113 110 94 105 93 104 138 165 100 129 133 146 146 144 134 112 131 134 127 113 115 138 147 161 170 174 176 179 182 184 187
129 121 123 139 134 143 149 200 151 130 132 124 121 121 105 94 90 114 155 174 159 137 113 101 116 128 158 169 164 149 125 128 129 146 153 162 173 183 184 186 189 193 196
122 120 133 129 126 135 140 173 41 90 101 114 133 142 147 129 121 126 191 156 144 169 130 149 182 143 153 156 165 209 165 128 156 166 168 171 176 184 189 195 197 200 206
122 122 126 108 119 138 149 158 167 121 99 105 119 126 140 146 152 191 169 119 172 176 158 213 140 163 184 181 198 207 199 177 170 180 181 183 180 178 178 190 198 203 209
135 135 135 132 126 148 146 156 156 154 144 139 128 111 120 151 168 202 160 150 195 202 197 166 126 219 193 207 244 218 213 202 181 186 188 181 173 179 178 178 186 199 206
143 141 142 145 140 147 148 163 169 171 175 162 151 134 135 157 155 169 315 160 207 217 203 202 199 217 221 197 234 258 246 216 190 178 179 175 172 161 156 163 174 176 185
148 147 149 151 151 154 162 176 176 172 183 158 127 119 143 164 188 186 190 234 217 197 205 228 222 230 247 212 199 201 221 269 339 185 163 167 156 121 126 143 142 145 156
153 155 157 153 153 162 169 176 177 148 140 101 127 135 156 168 192 192 167 198 255 199 202 214 234 241 243 253 222 204 202 205 119 31 146 145 142 124 125 121 132 150 158
157 155 147 146 147 152 164 178 174 160 161 161 155 147 144 144 171 156 155 167 238 234 221 248 219 258 251 266 274 262 243 173 175 190 29 48 96 99 88 101 105 119 120
160 157 152 146 147 151 164 168 176 164 166 154 140 136 144 146 147 132 132 152 215 228 229 270 295 280 270 272 281 282 275 229 199 182 195 183 96 88 99 92 87 90 91
161 158 156 150 155 158 168 172 169 181 171 129 134 140 169 159 146 126 126 132 172 238 253 267 271 267 262 266 279 287 272 260 221 196 188 181 171 137 99 94 95 100 99
Height
1519 1518 1518 1517 1516 1516 1516 1516 1515 1515 1514 1514 1514 1514 1515 1515 1516 1517 1518 1519 1519 1520 1522 1523 1525 1527 1529 1531 1533 1535 1538 1540 1542 1544 1546 1547 1549 1551 1552 1554 1555 1557 1558
1520 1520 1519 1519 1519 1518 1518 1518 1518 1517 1516 1516 1516 1517 1518 1518 1519 1520 1521 1522 1523 1525 1526 1527 1529 1531 1532 1534 1536 1538 1540 1543 1544 1546 1548 1550 1551 1553 1554 1556 1557 1558 1559
1522 1521 1521 1521 1521 1521 1521 1520 1520 1519 1519 1519 1519 1519 1520 1521 1522 1524 1524 1525 1527 1528 1529 1530 1532 1534 1535 1537 1539 1541 1543 1545 1547 1548 1550 1552 1553 1555 1556 1557 1559 1560 1561
1524 1523 1523 1523 1523 1523 1523 1523 1522 1522 1522 1522 1522 1523 1523 1524 1526 1526 1527 1528 1530 1531 1532 1534 1535 1536 1538 1540 1542 1543 1545 1547 1549 1551 1553 1554 1555 1557 1558 1559 1560 1561 1563
1525 1525 1525 1525 1525 1525 1525 1525 1525 1525 1525 1525 1525 1526 1527 1528 1528 1530 1531 1532 1533 1534 1535 1536 1537 1539 1541 1542 1544 1546 1547 1549 1551 1553 1554 1556 1557 1558 1559 1560 1562 1563 1564
1527 1527 1527 1527 1527 1527 1527 1528 1528 1528 1528 1528 1529 1529 1530 1531 1532 1533 1534 1535 1536 1537 1538 1539 1540 1541 1543 1545 1546 1548 1550 1552 1553 1555 1556 1557 1558 1559 1561 1562 1563 1564 1565
1529 1529 1529 1529 1529 1529 1529 1530 1530 1530 1531 1531 1532 1532 1533 1534 1534 1536 1537 1538 1539 1539 1540 1541 1542 1544 1545 1547 1549 1550 1552 1553 1555 1556 1557 1558 1559 1560 1562 1563 1564 1565 1566
1531 1530 1531 1531 1531 1531 1532 1532 1532 1533 1534 1534 1534 1535 1535 1536 1537 1538 1539 1540 1541 1542 1543 1544 1545 1546 1548 1549 1550 1552 1553 1555 1556 1557 1558 1559 1560 1561 1562 1564 1565 1566 1567
1533 1532 1532 1533 1533 1534 1534 1534 1535 1535 1536 1537 1537 1537 1538 1539 1540 1541 1542 1543 1544 1544 1545 1546 1547 1548 1549 1551 1552 1553 1555 1556 1557 1558 1559 1560 1561 1562 1563 1564 1565 1566 1567
1535 1535 1535 1536 1536 1536 1536 1537 1537 1537 1538 1539 1540 1540 1541 1542 1542 1543 1544 1545 1546 1547 1548 1548 1549 1550 1552 1553 1554 1555 1556 1557 1558 1559 1560 1560 1561 1563 1564 1565 1566 1567 1568
1536 1537 1538 1538 1538 1539 1539 1539 1539 1540 1540 1541 1542 1543 1543 1544 1545 1546 1547 1547 1548 1549 1550 1550 1551 1552 1554 1555 1555 1556 1557 1558 1559 1559 1560 1561 1562 1563 1564 1565 1566 1567 1568
1538 1538 1539 1540 1540 1541 1542 1541 1541 1542 1542 1543 1544 1545 1545 1547 1548 1548 1549 1549 1550 1551 1551 1552 1553 1554 1555 1556 1557 1558 1558 1559 1560 1560 1561 1562 1562 1563 1564 1565 1566 1567 1568
1538 1539 1540 1540 1541 1542 1542 1543 1543 1544 1544 1545 1546 1546 1547 1548 1549 1550 1550 1551 1551 1552 1553 1554 1554 1555 1556 1557 1558 1559 1560 1561 1561 1561 1561 1562 1563 1564 1565 1566 1566 1567 1568
1539 1540 1541 1541 1541 1542 1543 1543 1544 1545 1545 1546 1546 1547 1548 1549 1550 1551 1551 1552 1553 1553 1554 1555 1555 1556 1557 1558 1559 1560 1561 1561 1561 1561 1562 1563 1563 1564 1565 1566 1566 1567 1568
1539 1540 1541 1541 1541 1542 1542 1543 1544 1545 1546 1547 1547 1548 1548 1549 1550 1551 1552 1553 1554 1554 1555 1555 1556 1557 1558 1559 1559 1560 1561 1561 1562 1562 1562 1563 1563 1564 1565 1565 1566 1567 1568
1539 1540 1541 1541 1541 1542 1542 1543 1544 1545 1546 1547 1547 1548 1548 1549 1550 1552 1552 1553 1554 1555 1556 1556 1556 1557 1558 1559 1559 1560 1561 1562 1562 1562 1562 1563 1563 1564 1564 1565 1566 1566 1567
1539 1540 1541 1541 1541 1542 1543 1543 1545 1545 1546 1546 1547 1547 1548 1549 1550 1551 1552 1553 1554 1555 1555 1556 1557 1557 1558 1559 1559 1560 1560 1561 1561 1562 1562 1562 1563 1563 1564 1564 1565 1566 1566
1539 1540 1541 1542 1541 1542 1543 1543 1544 1545 1546 1546 1547 1547 1548 1549 1550 1550 1552 1552 1553 1554 1555 1556 1556 1557 1557 1558 1558 1559 1559 1560 1560 1561 1561 1561 1562 1562 1563 1564 1564 1565 1565
1539 1539 1540 1541 1541 1542 1542 1543 1544 1545 1545 1546 1547 1547 1548 1548 1549 1550 1551 1551 1552 1554 1554 1555 1556 1556 1556 1557 1557 1558 1559 1559 1559 1560 1561 1561 1561 1562 1562 1562 1563 1563 1563
1538 1539 1540 1541 1541 1541 1542 1543 1544 1545 1545 1546 1547 1547 1547 1548 1549 1549 1550 1551 1552 1552 1553 1554 1554 1555 1556 1556 1556 1557 1557 1558 1559 1559 1559 1560 1560 1561 1560 1561 1561 1561 1562
1538 1538 1539 1540 1540 1541 1542 1543 1543 1544 1545 1546 1546 1547 1547 1547 1548 1549 1549 1550 1551 1551 1552 1553 1553 1554 1554 1555 1555 1556 1556 1557 1557 1557 1558 1558 1559 1559 1559 1559 1559 1559 1559
1537 1538 1539 1539 1540 1540 1541 1542 1543 1544 1545 1545 1546 1546 1546 1547 1547 1548 1548 1549 1550 1550 1551 1552 1552 1553 1553 1554 1554 1555 1555 1557 1556 1556 1556 1557 1557 1558 1558 1558 1558 1557 1557
1536 1537 1538 1538 1539 1540 1541 1542 1544 1544 1545 1545 1545 1546 1546 1546 1547 1547 1548 1548 1549 1549 1550 1550 1551 1551 1551 1553 1553 1554 1554 1554 1555 1555 1555 1555 1556 1556 1557 1557 1556 1555 1555
1534 1536 1537 1538 1539 1539 1540 1542 1543 1543 1544 1545 1545 1545 1546 1546 1546 1547 1547 1547 1548 1548 1549 1549 1550 1550 1550 1551 1552 1552 1553 1553 1553 1554 1554 1554 1554 1555 1555 1555 1555 1554 1554
1533 1535 1536 1536 1537 1538 1540 1541 1542 1543 1544 1545 1545 1545 1546 1546 1546 1546 1546 1546 1547 1547 1547 1548 1548 1548 1549 1549 1550 1550 1551 1551 1551 1552 1552 1553 1553 1553 1553 1553 1552 1552 1552
1532 1534 1535 1535 1536 1538 1539 1540 1541 1542 1543 1544 1544 1545 1545 1545 1545 1546 1546 1545 1546 1546 1546 1546 1546 1547 1547 1547 1548 1548 1549 1549 1549 1550 1550 1550 1551 1552 1552 1551 1551 1551 1551